Regional Weather Roundup
Issued by NWS Newport/Morehead, NC

Current Version | Previous Version | Text Only | Print | Product List | Glossary Off
Versions: 1 2 3 4 5 6 7 8 9 10 11 12 13 14 15 16 17 18 19 20 21 22 23 24 25 26 27 28 29 30 31 32 33 34 35 36 37 38 39 40 41 42 43 44 45 46 47 48 49 50
000 ASUS42 KMHX 240425 RWRMHX WEATHER ROUNDUP FOR EASTERN NORTH CAROLINA NATIONAL WEATHER SERVICE NEWPORT/MOREHEAD CITY NC 1100 PM EST THU FEB 23 2017 NOTE: "FAIR" INDICATES FEW OR NO CLOUDS BELOW 12,000 FEET WITH NO SIGNIFICANT WEATHER AND/OR OBSTRUCTIONS TO VISIBILITY NCZ015>017-031-032-045>047-102-103-240500- NORTH COAST CITY SKY/WX TMP DP RH WIND PRES REMARKS EDENTON CLOUDY 55 52 90 CALM 29.96S ELIZABETH CITY PTCLDY 53 52 96 CALM 29.96R KITTY HAWK NOT AVBL MANTEO CLOUDY 55 54 95 CALM 29.95F $$ NCZ045>047-081-094-103-104-240500- CENTRAL COAST CITY SKY/WX TMP DP RH WIND PRES REMARKS FRISCO CLOUDY 68 59 73 SE8 29.94S HAZE $$ NCZ095-097-098-100-101-240500- SOUTHERN COAST CITY SKY/WX TMP DP RH WIND PRES REMARKS BEAUFORT MOCLDY 61 58 90 NE5 29.93S CEDAR ISLAND NOT AVBL JACKSONVILLE CLOUDY 62 59 90 N5 29.92S PINEY ISLAND MOCLDY N/A N/A N/A NE7 29.93S WILMINGTON PTCLDY 58 57 97 NE3 29.91S $$ NCZ011>013-027>030-043-044-078>080-089-090>093-098-240500- COASTAL PLAIN CITY SKY/WX TMP DP RH WIND PRES REMARKS AHOSKIE N/A 52 50 93 CALM 29.95S CLINTON CLEAR 57 55 92 CALM 29.93F ELIZABETHTOWN CLEAR 56 55 94 CALM 29.92S GOLDSBORO CLEAR 56 56 100 CALM 29.92R GREENVILLE CLEAR 55 55 100 CALM 29.96S HAVELOCK CLEAR 58 56 93 CALM 29.94S KENANSVILLE CLEAR 54 52 94 CALM 29.92F KINSTON CLEAR 56 55 97 CALM 29.94S NEW BERN CLOUDY 53 53 100 CALM 29.94S RICHLANDS PTCLDY 54 54 100 NE3 29.93S ROCKY MOUNT CLEAR 54 54 100 CALM 29.94R WASHINGTON CLOUDY 54 53 98 CALM 29.94F WHITEVILLE PTCLDY 57 55 92 CALM 29.91S $$ AMZ130-135-150-152-154-156-158-170-250-252-270-ANZ085-086-088-633-658-670-240500- MARINE OBSERVATIONS STATION/POSITION TIME TEMP WIND PRES WAVE SWELL AIR SEA DIR/SP/G HT/PER HT/PER (UTC) (F) (DEG/KT/KT) (MB) (FT/S) (FT/S) CHESAPEAKE LIGHT NOT AVBL 64 E VA BEACH 0350 58 54 150/ 6/ 6 1014.6 4/11 3/11 DUCK 0400 56 50 150/ 6/ 7 1013.7 2 E DUCK 0400 50 N/A 3/11 2/11 OREGON INLET 0400 55 57 70/ 4/ 4 1013.9 13E OREGON INLT NOT AVBL HATTERAS CG 0400 66 62 110/ 5/ 7 1013.6 DIAMOND BUOY 0350 71 74 140/ 16/ 19 1013.8 5/ 7 3/10 CAPE LOOKOUT 0400 66 130/ 11/ 11 1013.0 BEAUFORT LAB 0400 61 56 40/ 5/ 6 1012.5 30 SE NEW RVR IN 0408 68 110/ 10/ 14 1012.8 30 SE NEW RVR IN 0413 70 N/A 6/ 7 2/11 27 SE WRIGHTSVLE 0408 69 66 120/ 10/ 14 1012.0 5 SE WRIGHTSVLE 0408 60 58 60/ 6/ 10 1012.7 225 S CAPE HAT 0350 68 69 100/ 25/ 31 1009.5 11/10 8/10 41 SE CHARLESTON 0350 70 70 50/ 14/ 16 1010.5 9/10 8/10 $$

USA.gov is the U.S. government's official web portal to all federal, state and local government web resources and services.